• Processing (Info)

  • MPEC 2013-E56 : 2013 EQ41

    The following Minor Planet Electronic Circular may be linked-to from your own Web pages, but must not otherwise be redistributed electronically.

    A form allowing access to any MPEC is at the bottom of this page.


    Read MPEC 2013-E55 Read MPEC 2013-E57


    M.P.E.C. 2013-E56                                Issued 2013 Mar. 13, 11:26 UT
    
         The Minor Planet Electronic Circulars contain information on unusual
             minor planets and routine data on comets.  They are published
       on behalf of Commission 20 of the International Astronomical Union by the
              Minor Planet Center, Smithsonian Astrophysical Observatory,
                              Cambridge, MA 02138, U.S.A.
    
                 Prepared using the Tamkin Foundation Computer Network
    
                                  MPC@CFA.HARVARD.EDU
                URL https://www.minorplanetcenter.net/    ISSN 1523-6714
    
                                       2013 EQ41
    
    Observations:
         K13E41Q* C2013 03 11.48045 13 07 37.88 +12 45 58.0          19.7 VuEE056703
         K13E41Q  C2013 03 11.48741 13 07 37.56 +12 45 01.5          19.6 VuEE056703
         K13E41Q  C2013 03 11.49447 13 07 37.16 +12 44 02.3          19.4 VuEE056703
         K13E41Q  C2013 03 11.50152 13 07 36.91 +12 43 02.4          19.0 VuEE056703
         K13E41Q KC2013 03 11.99852 13 07 57.24 +11 38 45.0                qEE056J95
         K13E41Q KC2013 03 12.00161 13 07 57.05 +11 38 22.0                qEE056J95
         K13E41Q KC2013 03 12.01096 13 07 56.70 +11 37 15.0                qEE056J95
         K13E41Q KC2013 03 12.01566 13 07 56.55 +11 36 41.5          19.4 RqEE056J95
         K13E41Q KC2013 03 13.25375 13 08 10.42 +09 25 39.9          20.2 RoEE056291
         K13E41Q KC2013 03 13.25600 13 08 10.33 +09 25 27.3          20.2 RoEE056291
         K13E41Q KC2013 03 13.25826 13 08 10.22 +09 25 14.6          20.1 RoEE056291
         K13E41Q KC2013 03 13.29430 13 08 05.31 +09 21 36.6          20.1 RqEE056H36
         K13E41Q KC2013 03 13.30385 13 08 04.79 +09 20 43.3          19.8 RqEE056H36
         K13E41Q KC2013 03 13.30863 13 08 04.54 +09 20 16.7          19.7 RqEE056H36
    
    Observer details:
    291 LPL/Spacewatch II.  Observer R. S. McMillan.  1.8-m f/2.7 reflector + CCD.
    703 Catalina Sky Survey.  Observer J. A. Johnson.  Measurers A. Boattini,
        E. J. Christensen, A. R. Gibbs, A. D. Grauer, R. E. Hill, J. A. Johnson,
        R. A. Kowalski, S. M. Larson, R. H. McNaught, F. C. Shelly.  0.68-m
        Schmidt + CCD.
    H36 Sandlot Observatory, Scranton.  Observer G. Hug.  0.56-m reflector + CCD.
    J95 Great Shefford.  Observer P. Birtwhistle.  0.40-m f/6.0 Schmidt-Cassegrain
        + CCD.
    
    Orbital elements:
    2013 EQ41                                                Earth MOID = 0.0023 AU
    Epoch 2013 Apr. 18.0 TT = JDT 2456400.5                 MPC
    M  35.04908              (2000.0)            P               Q
    n   0.47120674     Peri.   43.87424     -0.59748320     -0.80179738
    a   1.6355421      Node    82.81898     +0.73244817     -0.55158433
    e   0.4263119      Incl.    0.67047     +0.32639469     -0.22994716
    P   2.09           H   25.6           G   0.15           U   7
    Residuals in seconds of arc
    130311 703  0.3-  0.1+    130312 J95  0.7-  0.2-    130313 291  0.0   0.4+
    130311 703  0.3+  1.1+    130312 J95  0.2-  0.3-    130313 H36  0.5-  1.0-
    130311 703  0.5-  0.2+    130312 J95  0.5+  0.2-    130313 H36  0.0   1.1-
    130311 703  0.6+  1.5-    130313 291  0.1-  0.7+    130313 H36  0.5+  1.1-
    130311 J95  0.3+  0.6+    130313 291  0.1+  0.6+
    
    Ephemeris:
    2013 EQ41                a,e,i = 1.64, 0.43, 1                   q = 0.9383
    Date    TT    R. A. (2000) Decl.     Delta      r     Elong.  Phase     V
    2013 02 11    01 09 07.1 +13 04 13   0.09149 0.9429    58.8   116.4    24.9
    ...
    2013 02 26    01 20 45.7 +33 51 40   0.02716 0.9759    57.8   120.8    22.6
    ...
    2013 03 06    13 00 22.6 +41 19 56   0.01704 1.0045   136.3    43.1    18.4
    ...
    2013 03 12    13 07 52.7 +11 41 02   0.04025 1.0300   154.0    25.0    19.8
    2013 03 13    13 08 01.2 +09 51 36   0.04456 1.0346   155.2    23.8    20.0
    2013 03 14    13 08 04.1 +08 21 19   0.04893 1.0392   156.3    22.6    20.2
    ...
    2013 03 20    13 07 17.0 +02 59 27   0.07610 1.0686   162.4    16.4    21.0
    ...
    2013 03 28    13 05 07.2 -00 08 53   0.1149  1.1114   170.0     8.9    21.7
    ...
    2013 04 12    13 01 26.2 -02 40 56   0.1985  1.1994   172.2     6.5    23.0
    
    A. U. Tomatic                (C) Copyright 2013 MPC           M.P.E.C. 2013-E56
    

    Read MPEC 2013-E55 Read MPEC 2013-E57


    MPEC number:

    Enter an MPEC number in one of the following forms:

    • 1997-B01 (the full form)
    • J97B01 (the packed version of the full form)
    • B01 (the abbreviated form)